Storm Lake, IA

11:49 AM CDT on April 20, 2018 (GMT -0500)
Storm Lake Municipal

Weather History for KSLB - April, 2014

Change the Weather History Date:

Tuesday, April 1, 2014

  Actual Average Record
Temperature  
Mean Temperature 29 °F -  
Max Temperature 41 °F 51 °F 90 °F (2012)
Min Temperature 17 °F 32 °F 17 °F (2014)
Degree Days  
Heating Degree Days 36    
Moisture  
Dew Point 16 °F    
Average Humidity 60    
Maximum Humidity 79    
Minimum Humidity 39    
Precipitation  
Precipitation 0.00 in - - ()
Sea Level Pressure  
Sea Level Pressure 29.98 in    
Wind  
Wind Speed 24 mph (WNW)    
Max Wind Speed 40 mph    
Max Gust Speed 50 mph    
Visibility 10 miles    
Events Snow    
Averages and records for this station are not official NWS values.
T = Trace of Precipitation, MM = Missing Value Source: NWS Daily Summary

Daily Weather History Graph

Daily Weather History Graph

Search for Another Location

Airport or City:

Astronomy

Apr. 01, 2014 Rise Set
Actual Time 7:03 AM CDT 7:47 PM CDT
Civil Twilight 6:34 AM CDT 8:15 PM CDT
Nautical Twilight 6:01 AM CDT 8:49 PM CDT
Astronomical Twilight 5:26 AM CDT 9:24 PM CDT
Moon 8:04 AM CDT (4/1) 10:13 PM CDT (4/1)
Length of Visible Light 13h 40m
Length of Day
12h 43m
Waxing Crescent, 5% of the Moon is Illuminated
Apr 1
Waxing Crescent
Apr 7
First Quarter
Apr 15
Full
Apr 22
Last Quarter
Apr 29
New

Hourly Weather History & Observations

Time (CDT) Temp. Windchill Dew Point Humidity Pressure Visibility Wind Dir Wind Speed Gust Speed Precip Events Conditions
12:15 AM 19.4 °F -0.3 °F 12.2 °F 74% 29.75 in 8.0 mi WNW 33.4 mph 48.3 mph N/A Snow Light Snow
12:35 AM 19.4 °F -1.1 °F 10.4 °F 68% 29.78 in 9.0 mi WNW 36.8 mph 48.3 mph N/A Snow Light Snow
12:55 AM 19.4 °F -1.8 °F 10.4 °F 68% 29.79 in 9.0 mi WNW 40.3 mph 47.2 mph N/A Snow Light Snow
1:15 AM 19.4 °F -1.1 °F 10.4 °F 68% 29.79 in 9.0 mi WNW 36.8 mph 44.9 mph N/A Snow Light Snow
1:35 AM 19.4 °F -1.1 °F 10.4 °F 68% 29.79 in 10.0 mi WNW 36.8 mph 49.5 mph N/A   Overcast
1:55 AM 19.4 °F -0.6 °F 10.4 °F 68% 29.79 in 10.0 mi WNW 34.5 mph 46.0 mph N/A Snow Light Snow
2:15 AM 19.4 °F -1.3 °F 10.4 °F 68% 29.80 in 9.0 mi WNW 38.0 mph 48.3 mph N/A Snow Light Snow
2:35 AM 19.4 °F -0.3 °F 10.4 °F 68% 29.82 in 8.0 mi WNW 33.4 mph 41.4 mph N/A Snow Light Snow
2:55 AM 17.6 °F -1.9 °F 12.2 °F 79% 29.82 in 5.0 mi WNW 29.9 mph 41.4 mph N/A Snow Light Snow
3:15 AM 17.6 °F -1.3 °F 10.4 °F 73% 29.84 in 9.0 mi WNW 27.6 mph 39.1 mph N/A Snow Light Snow
3:35 AM 17.6 °F -1.3 °F 10.4 °F 73% 29.85 in 8.0 mi WNW 27.6 mph 36.8 mph N/A Snow Light Snow
3:55 AM 17.6 °F -1.3 °F 10.4 °F 73% 29.86 in 10.0 mi WNW 27.6 mph 34.5 mph N/A   Overcast
4:15 AM 17.6 °F 0.5 °F 10.4 °F 73% 29.87 in 10.0 mi WNW 21.9 mph 34.5 mph N/A   Overcast
4:35 AM 17.6 °F 0.9 °F 10.4 °F 73% 29.88 in 10.0 mi WNW 20.7 mph 36.8 mph N/A   Overcast
4:55 AM 17.6 °F 0.5 °F 10.4 °F 73% 29.90 in 10.0 mi WNW 21.9 mph 31.1 mph N/A   Overcast
5:15 AM 17.6 °F -0.6 °F 10.4 °F 73% 29.90 in 10.0 mi WNW 25.3 mph 35.7 mph N/A   Overcast
5:35 AM 17.6 °F -1.0 °F 10.4 °F 73% 29.91 in 10.0 mi WNW 26.5 mph 33.4 mph N/A   Mostly Cloudy
5:55 AM 17.6 °F -1.0 °F 10.4 °F 73% 29.91 in 10.0 mi WNW 26.5 mph 34.5 mph N/A   Mostly Cloudy
6:15 AM 17.6 °F 0.9 °F 10.4 °F 73% 29.91 in 10.0 mi WNW 20.7 mph 29.9 mph N/A   Scattered Clouds
6:35 AM 17.6 °F 0.5 °F 10.4 °F 73% 29.92 in 10.0 mi WNW 21.9 mph 28.8 mph N/A   Partly Cloudy
6:55 AM 17.6 °F 1.7 °F 12.2 °F 79% 29.94 in 10.0 mi WNW 18.4 mph 27.6 mph N/A   Scattered Clouds
7:15 AM 17.6 °F 0.5 °F 10.4 °F 73% 29.94 in 10.0 mi WNW 21.9 mph 28.8 mph N/A   Scattered Clouds
7:35 AM 17.6 °F 0.5 °F 12.2 °F 79% 29.96 in 10.0 mi WNW 21.9 mph - N/A   Clear
7:55 AM 17.6 °F 0.5 °F 12.2 °F 79% 29.96 in 10.0 mi WNW 21.9 mph 31.1 mph N/A   Clear
8:15 AM 19.4 °F 3.2 °F 12.2 °F 74% 29.96 in 10.0 mi WNW 20.7 mph - N/A   Clear
8:35 AM 19.4 °F 2.1 °F 12.2 °F 74% 29.98 in 10.0 mi WNW 24.2 mph 31.1 mph N/A   Clear
8:55 AM 21.2 °F 5.2 °F 12.2 °F 68% 29.98 in 10.0 mi NW 21.9 mph 28.8 mph N/A   Clear
9:15 AM 23.0 °F 6.9 °F 12.2 °F 63% 29.99 in 10.0 mi WNW 24.2 mph 31.1 mph N/A   Clear
9:35 AM 23.0 °F 8.7 °F 12.2 °F 63% 30.01 in 10.0 mi WNW 18.4 mph 27.6 mph N/A   Clear
9:55 AM 24.8 °F 10.7 °F 14.0 °F 64% 30.02 in 10.0 mi NW 19.6 mph - N/A   Clear
10:15 AM 26.6 °F 13.4 °F 14.0 °F 59% 30.02 in 10.0 mi WNW 18.4 mph 26.5 mph N/A   Clear
10:35 AM 26.6 °F 12.7 °F 14.0 °F 59% 30.03 in 10.0 mi WNW 20.7 mph 26.5 mph N/A   Clear
10:55 AM 28.4 °F 14.7 °F 14.0 °F 55% 30.04 in 10.0 mi WNW 21.9 mph - N/A   Clear
11:15 AM 30.2 °F 18.1 °F 15.8 °F 55% 30.05 in 10.0 mi WNW 18.4 mph 25.3 mph N/A   Clear
11:35 AM 30.2 °F 18.5 °F 15.8 °F 55% 30.05 in 10.0 mi WNW 17.3 mph - N/A   Clear
11:55 AM 32.0 °F 20.1 °F 15.8 °F 51% 30.04 in 10.0 mi WNW 19.6 mph 25.3 mph N/A   Clear
12:15 PM 33.8 °F 23.2 °F 15.8 °F 48% 30.04 in 10.0 mi WNW 17.3 mph - N/A   Clear
12:35 PM 33.8 °F 23.5 °F 15.8 °F 48% 30.03 in 10.0 mi WNW 16.1 mph - N/A   Clear
12:55 PM 35.6 °F 25.5 °F 15.8 °F 44% 30.03 in 10.0 mi WNW 17.3 mph - N/A   Clear
1:15 PM 37.4 °F 28.5 °F 17.6 °F 45% 30.03 in 10.0 mi NW 15.0 mph 21.9 mph N/A   Clear
1:35 PM 37.4 °F 27.8 °F 17.6 °F 45% 30.02 in 10.0 mi WNW 17.3 mph 23.0 mph N/A   Clear
1:55 PM 39.2 °F 31.6 °F 17.6 °F 42% 30.02 in 10.0 mi NW 12.7 mph - N/A   Clear
2:15 PM 39.2 °F 30.5 °F 17.6 °F 42% 30.03 in 10.0 mi WNW 16.1 mph - N/A   Clear
2:35 PM 39.2 °F 31.2 °F 17.6 °F 42% 30.03 in 10.0 mi WNW 13.8 mph 23.0 mph N/A   Clear
2:55 PM 39.2 °F 32.5 °F 17.6 °F 42% 30.03 in 10.0 mi WNW 10.4 mph 20.7 mph N/A   Clear
3:15 PM 41.0 °F 34.7 °F 17.6 °F 39% 30.03 in 10.0 mi NW 10.4 mph 16.1 mph N/A   Clear
3:35 PM 39.2 °F 32.0 °F 19.4 °F 45% 30.03 in 10.0 mi WNW 11.5 mph - N/A   Clear
3:55 PM 41.0 °F 33.9 °F 19.4 °F 42% 30.03 in 10.0 mi WNW 12.7 mph - N/A   Clear
4:15 PM 39.2 °F 31.6 °F 19.4 °F 45% 30.03 in 10.0 mi West 12.7 mph - N/A   Clear
4:35 PM 39.2 °F 32.0 °F 19.4 °F 45% 30.03 in 10.0 mi West 11.5 mph - N/A   Clear
4:55 PM 39.2 °F 31.2 °F 19.4 °F 45% 30.03 in 10.0 mi West 13.8 mph - N/A   Clear
5:15 PM 39.2 °F 31.6 °F 19.4 °F 45% 30.04 in 10.0 mi West 12.7 mph - N/A   Clear
5:35 PM 37.4 °F 29.3 °F 19.4 °F 48% 30.04 in 10.0 mi West 12.7 mph - N/A   Clear
5:55 PM 37.4 °F 29.3 °F 19.4 °F 48% 30.05 in 10.0 mi West 12.7 mph - N/A   Clear
6:15 PM 37.4 °F 29.3 °F 19.4 °F 48% 30.06 in 10.0 mi West 12.7 mph - N/A   Scattered Clouds
6:35 PM 37.4 °F 30.3 °F 21.2 °F 52% 30.06 in 10.0 mi West 10.4 mph - N/A   Mostly Cloudy
6:55 PM 37.4 °F 31.4 °F 21.2 °F 52% 30.05 in 10.0 mi NW 8.1 mph - N/A   Mostly Cloudy
7:15 PM 37.4 °F 30.8 °F 21.2 °F 52% 30.04 in 10.0 mi NNW 9.2 mph - N/A   Overcast
7:35 PM 37.4 °F 29.8 °F 21.2 °F 52% 30.03 in 10.0 mi North 11.5 mph - N/A   Overcast
7:55 PM 37.4 °F 29.3 °F 19.4 °F 48% 30.03 in 10.0 mi North 12.7 mph - N/A   Mostly Cloudy
8:15 PM 37.4 °F 30.3 °F 21.2 °F 52% 30.03 in 10.0 mi NNE 10.4 mph - N/A   Overcast
8:35 PM 37.4 °F 34.9 °F 21.2 °F 52% 30.05 in 10.0 mi NNW 3.5 mph - N/A   Overcast
8:55 PM 37.4 °F 31.4 °F 21.2 °F 52% 30.05 in 10.0 mi North 8.1 mph - N/A   Overcast
9:15 PM 37.4 °F 32.1 °F 23.0 °F 56% 30.06 in 10.0 mi NNE 6.9 mph - N/A   Overcast
9:35 PM 35.6 °F 32.8 °F 23.0 °F 60% 30.08 in 10.0 mi West 3.5 mph - N/A   Overcast
9:55 PM 33.8 °F 29.6 °F 23.0 °F 65% 30.08 in 10.0 mi West 4.6 mph - N/A   Overcast
10:15 PM 33.8 °F 28.6 °F 21.2 °F 60% 30.09 in 10.0 mi West 5.8 mph - N/A   Mostly Cloudy
10:35 PM 32.0 °F 26.4 °F 23.0 °F 69% 30.09 in 10.0 mi NW 5.8 mph - N/A   Mostly Cloudy
10:55 PM 32.0 °F 26.4 °F 21.2 °F 64% 30.09 in 10.0 mi North 5.8 mph - N/A   Mostly Cloudy
11:15 PM 30.2 °F 24.3 °F 21.2 °F 69% 30.09 in 10.0 mi North 5.8 mph - N/A   Overcast
11:35 PM 30.2 °F 23.4 °F 21.2 °F 69% 30.09 in 10.0 mi North 6.9 mph - N/A   Mostly Cloudy
11:55 PM 30.2 °F 24.3 °F 21.2 °F 69% 30.10 in 10.0 mi NNE 5.8 mph - N/A   Partly Cloudy